[[{"header":{"parameterUnit":"m.s-1","parameterCategory":1,"la1":30.2991,"la2":30.254,"lo1":-89.0895,"lo2":-89.0444,"dy":0.0017,"dx":0.0017,"nx":28,"ny":28,"refTime":"2024-10-14T03:00:00:Z","depth":0,"parameterNumber":2,"parameterNumberName":"U-component_of_WINDS"},"data":[0,0,0,0,0,0,0,0,0,0,0,0,0,0,0,0,0,0,0,0,0,0,0,0,0,0,0,0,0,0,0,0,0,0,0,0,0,0,0,0,0,0,0,0,0,0,0,0,0,0,0,0,0,0,0,0,0,0,3.5056,3.5056,0,3.5129,3.5129,3.513,3.5087,3.5085,3.5083,3.5081,3.5158,3.5162,3.5166,0,0,0,0,0,0,0,0,0,0,0,0,0,3.4884,3.4887,3.5055,3.5056,3.5057,3.5128,3.5129,3.513,3.5087,3.5085,3.5082,3.508,3.5157,3.5161,3.5166,0,0,0,0,0,0,0,0,0,0,0,0,0,3.4958,3.4888,3.5055,3.5044,3.5044,3.5128,3.5129,3.5131,3.5088,3.5085,3.5082,3.5079,3.5155,3.5161,3.5167,3.5267,0,0,3.5185,3.5188,0,0,0,0,0,0,0,0,3.4953,3.4964,3.5045,3.5045,3.5045,3.5095,3.5097,3.5176,3.5089,3.5071,3.5081,3.5077,3.514,3.5147,3.5168,3.527,3.5274,3.5186,3.5189,3.5192,3.5194,0,0,0,0,0,0,0,3.4948,3.4961,3.5084,3.5046,3.5046,3.5037,3.5044,3.5112,3.5122,3.5073,3.507,3.5079,3.5139,3.5162,3.5169,3.5275,3.5186,3.5191,3.5195,3.5197,3.5467,3.5471,0,0,0,0,0,0,3.4944,3.4957,3.5082,3.5087,3.4991,3.5043,3.5051,3.5082,3.5121,3.5124,3.5081,3.5076,3.5153,3.5162,3.5172,3.5294,3.5192,3.5198,3.5201,3.5464,3.5468,3.5472,0,0,0,0,0,0,3.494,3.4955,3.5079,3.5021,3.5036,3.5049,3.5085,3.5086,3.5108,3.5128,3.513,3.5102,3.5151,3.5163,3.5244,3.5296,3.52,3.5206,3.546,3.5465,3.547,3.5538,0,0,0,0,0,0,3.4935,3.4954,3.4991,3.5022,3.5039,3.5149,3.5088,3.5089,3.5118,3.5113,3.5148,3.5151,3.5149,3.5235,3.525,3.5302,3.521,3.5455,3.5462,3.5469,3.5531,3.5545,3.5556,0,0,0,0,0,3.4929,3.5006,3.4993,3.5008,3.5085,3.5152,3.5162,3.5158,3.5122,3.5161,3.5174,3.515,3.5288,3.5244,3.526,3.5315,3.5452,3.546,3.5468,3.5525,3.5542,3.5556,0,0,0,0,0,0,3.4981,3.501,3.4995,3.5085,3.5116,3.5145,3.5192,3.5175,3.5218,3.5211,3.5205,3.5214,3.5299,3.5315,3.5266,3.5416,3.5364,3.5376,3.5402,3.5419,3.5431,3.5426,3.5215,0,0,0,0,0,3.5003,3.5053,3.5077,3.5153,3.517,3.5179,3.5208,3.5202,3.5235,3.5248,3.5267,3.5301,3.5352,3.5386,3.5434,3.5533,3.5542,3.5579,3.5592,3.5602,3.5613,3.567,3.5688,3.5499,3.5499,3.5498,0,0,3.5048,3.507,3.5103,3.5164,3.5188,3.5243,3.519,3.5249,3.5291,3.5257,3.5336,3.5351,3.5389,3.548,3.5521,3.5496,3.5667,3.5612,3.5621,3.5626,3.568,3.5698,3.5714,3.5504,3.5503,3.5502,0,0,3.5159,3.518,3.5248,3.5274,3.5311,3.5316,3.5333,3.5365,3.5374,3.5452,3.543,3.5479,3.5566,3.5595,3.5621,3.5748,3.5728,3.5764,3.5831,3.5887,3.5902,3.5915,3.5963,3.598,3.5774,3.5774,3.5774,0,3.5212,3.5292,3.5285,3.5347,3.5377,3.5349,3.542,3.5445,3.5496,3.5518,3.5489,3.56,3.5623,3.5723,3.5754,3.5775,3.5796,3.576,3.59,3.5913,3.5925,3.5971,3.5989,3.5778,3.5778,3.5777,3.5777,0,3.5356,3.5412,3.5463,3.5514,3.5548,3.5614,3.562,3.5656,3.5648,3.5658,3.574,3.5767,3.5822,3.5845,3.5837,3.5945,3.5929,3.59,3.5848,3.5948,3.5991,3.6008,3.5784,3.5783,3.5781,3.578,0,0,3.5501,3.5549,3.5568,3.5592,3.5632,3.5677,3.5743,3.5796,3.5829,3.5866,3.5923,3.5999,3.5974,3.6004,3.6,3.6048,3.6151,3.6014,3.6015,3.6041,3.6275,3.6298,3.6318,3.6138,3.6141,3.6144,3.6273,0,3.5616,3.5731,3.5729,3.5836,3.589,3.5866,3.5925,3.5957,3.5969,3.6017,3.603,3.6086,3.6046,3.6065,3.6112,3.6128,3.6198,3.6119,3.6194,3.6197,3.6187,3.634,3.6364,3.6485,3.629,3.6292,3.6294,0,3.5766,3.5809,3.5922,3.5958,3.5981,3.6033,3.6084,3.613,3.6167,3.6172,3.6207,3.6197,3.6267,3.6212,3.6311,3.6257,3.6287,3.6301,3.6305,3.6313,3.6253,3.6355,3.6522,3.6542,3.632,3.6318,3.6316,0,3.5865,3.595,3.603,3.6051,3.6094,3.6132,3.6152,3.6186,3.6219,3.6264,3.6286,3.6339,3.6368,3.641,3.6415,3.6374,3.6515,3.646,3.6524,3.6524,3.6555,3.6554,3.6732,3.6572,3.6571,3.6571,3.6571,0,3.5995,3.6066,3.6075,3.6124,3.6204,3.6202,3.6281,3.6298,3.6329,3.6383,3.6365,3.6417,3.6419,3.6472,3.6476,3.6559,3.6571,3.658,3.658,3.6583,3.6582,3.6604,3.6596,3.6576,3.6575,3.6574,3.6573,0,3.6119,3.6127,3.6213,3.6247,3.6257,3.6315,3.6345,3.6394,3.6404,3.6473,3.6489,3.6506,3.6568,3.6577,3.6649,3.6652,3.6753,3.6743,3.674,3.674,3.6804,3.6799,3.7004,3.7033,3.6851,3.6853,3.6854,0,3.6202,3.6257,3.6297,3.6332,3.6354,3.641,3.6444,3.6445,3.6482,3.6531,3.6574,3.6635,3.6683,3.6784,3.6804,3.686,3.6854,3.6922,3.6862,3.6864,3.6859,3.6856,3.6863,3.6934,3.6936,3.6938,3.6939,0,3.6352,3.6354,3.6404,3.6457,3.6499,3.654,3.6579,3.6609,3.6615,3.6658,3.6722,3.6759,3.6835,3.6896,3.6952,3.6975,3.696,3.6958,3.6976,3.698,3.6977,3.6983,3.6774,3.6953,3.6952,3.6951,3.695,3.695,3.646,3.6508,3.6545,3.6603,3.6633,3.667,3.6718,3.6736,3.6788,3.6849,3.6847,3.6918,3.6957,3.7031,3.7058,3.7115,3.7093,3.7118,3.7125,3.7132,3.714,3.6966,3.7125,3.7124,3.7124,3.7124,3.7123,0,3.6611,3.6634,3.6687,3.6743,3.6789,3.6769,3.6813,3.6853,3.6916,3.6953,3.7002,3.7077,3.7137,3.7163,3.7223,3.7264,3.7259,3.728,3.7278,3.7284,3.7155,3.7134,3.7283,3.7283,3.7283,3.7283,3.7283,3.7283,3.6695,3.6777,3.6784,3.6882,3.6905,3.6974,3.7001,3.7037,3.7067,3.7152,3.7201,3.7218,3.7252,3.7315,3.737,3.7376,3.7401,3.7426,3.7429,3.7308,3.7292,3.7277,3.7258,3.743,3.743,3.7554,3.7555,3.7556]},{"header":{"parameterUnit":"m.s-1","parameterCategory":1,"la1":30.2991,"la2":30.254,"lo1":-89.0895,"lo2":-89.0444,"dy":0.0017,"dx":0.0017,"nx":28,"ny":28,"refTime":"2024-10-14T03:00:00:Z","depth":0,"parameterNumber":3,"parameterNumberName":"V-component_of_WINDS"},"data":[0,0,0,0,0,0,0,0,0,0,0,0,0,0,0,0,0,0,0,0,0,0,0,0,0,0,0,0,0,0,0,0,0,0,0,0,0,0,0,0,0,0,0,0,0,0,0,0,0,0,0,0,0,0,0,0,0,0,-1.3212,-1.3212,0,-1.3216,-1.3216,-1.3216,-1.3216,-1.3216,-1.3216,-1.3216,-1.3217,-1.3217,-1.3218,0,0,0,0,0,0,0,0,0,0,0,0,0,-1.3201,-1.3201,-1.3211,-1.3212,-1.3212,-1.3216,-1.3216,-1.3216,-1.3216,-1.3216,-1.3216,-1.3216,-1.3217,-1.3217,-1.3218,0,0,0,0,0,0,0,0,0,0,0,0,0,-1.3206,-1.3201,-1.3211,-1.3212,-1.3212,-1.3216,-1.3216,-1.3216,-1.3216,-1.3216,-1.3216,-1.3216,-1.3217,-1.3217,-1.3218,-1.3221,0,0,-1.3218,-1.3218,0,0,0,0,0,0,0,0,-1.3205,-1.3206,-1.3212,-1.3212,-1.3212,-1.3215,-1.3213,-1.3218,-1.3216,-1.3214,-1.3216,-1.3215,-1.3217,-1.3217,-1.3218,-1.3221,-1.3221,-1.3218,-1.3218,-1.3218,-1.3218,0,0,0,0,0,0,0,-1.3205,-1.3206,-1.3213,-1.3212,-1.3212,-1.3212,-1.3212,-1.3214,-1.3216,-1.3214,-1.3214,-1.3215,-1.3217,-1.3218,-1.3218,-1.3221,-1.3218,-1.3218,-1.3218,-1.3218,-1.3229,-1.3229,0,0,0,0,0,0,-1.3205,-1.3206,-1.3213,-1.3213,-1.3209,-1.3212,-1.3213,-1.3214,-1.3216,-1.3216,-1.3215,-1.3215,-1.3217,-1.3218,-1.3218,-1.3224,-1.3218,-1.3218,-1.3219,-1.3229,-1.3229,-1.3229,0,0,0,0,0,0,-1.3205,-1.3206,-1.3213,-1.321,-1.321,-1.3212,-1.3214,-1.3215,-1.3216,-1.3217,-1.3217,-1.3216,-1.3217,-1.3218,-1.3221,-1.3223,-1.3218,-1.3219,-1.3229,-1.3229,-1.3229,-1.3234,0,0,0,0,0,0,-1.3204,-1.3205,-1.3207,-1.321,-1.3211,-1.3216,-1.3214,-1.3215,-1.3216,-1.3216,-1.3217,-1.3217,-1.3217,-1.3221,-1.3221,-1.3224,-1.3219,-1.3229,-1.3229,-1.3229,-1.3233,-1.3234,-1.3235,0,0,0,0,0,-1.3204,-1.3206,-1.3207,-1.3208,-1.3212,-1.3216,-1.3217,-1.3217,-1.3216,-1.3218,-1.3219,-1.3217,-1.3223,-1.3221,-1.3221,-1.3224,-1.3228,-1.3229,-1.3229,-1.3233,-1.3234,-1.3235,0,0,0,0,0,0,-1.3202,-1.3207,-1.3207,-1.321,-1.3213,-1.3216,-1.3218,-1.3218,-1.322,-1.322,-1.322,-1.322,-1.3224,-1.3224,-1.3221,-1.3228,-1.3226,-1.3226,-1.3228,-1.3229,-1.323,-1.323,-1.3219,0,0,0,0,0,-1.3202,-1.3205,-1.3209,-1.3212,-1.3213,-1.3215,-1.3217,-1.3218,-1.322,-1.3221,-1.3222,-1.3223,-1.3226,-1.3227,-1.3229,-1.3233,-1.3234,-1.3236,-1.3236,-1.3237,-1.3237,-1.3242,-1.3243,-1.3231,-1.3231,-1.3231,0,0,-1.3202,-1.3205,-1.3207,-1.3212,-1.3214,-1.3217,-1.3216,-1.3219,-1.3222,-1.3221,-1.3225,-1.3226,-1.3228,-1.3232,-1.3234,-1.3232,-1.3241,-1.3237,-1.3238,-1.3238,-1.3242,-1.3244,-1.3245,-1.3231,-1.3231,-1.3231,0,0,-1.3204,-1.3206,-1.321,-1.3213,-1.3217,-1.3219,-1.322,-1.3223,-1.3224,-1.3229,-1.3229,-1.3232,-1.3235,-1.3238,-1.3239,-1.3245,-1.3245,-1.3246,-1.325,-1.3254,-1.3255,-1.3256,-1.326,-1.3261,-1.3246,-1.3246,-1.3246,0,-1.3203,-1.3209,-1.3211,-1.3216,-1.3218,-1.3219,-1.3224,-1.3226,-1.323,-1.3232,-1.323,-1.3237,-1.3238,-1.3244,-1.3246,-1.3247,-1.3249,-1.3246,-1.3255,-1.3256,-1.3256,-1.326,-1.3261,-1.3247,-1.3247,-1.3247,-1.3246,0,-1.3208,-1.3213,-1.3215,-1.3222,-1.3224,-1.3228,-1.3232,-1.3234,-1.3236,-1.3238,-1.3243,-1.3245,-1.3249,-1.325,-1.325,-1.3257,-1.3256,-1.3255,-1.3252,-1.3258,-1.3261,-1.3263,-1.3247,-1.3247,-1.3247,-1.3247,0,0,-1.3207,-1.3217,-1.3218,-1.3222,-1.3228,-1.3231,-1.3236,-1.3242,-1.3245,-1.3248,-1.3253,-1.3257,-1.3257,-1.3259,-1.3259,-1.3263,-1.3271,-1.3261,-1.3262,-1.3264,-1.328,-1.3282,-1.3284,-1.327,-1.327,-1.3271,-1.3281,0,-1.3211,-1.3221,-1.3224,-1.3232,-1.3237,-1.324,-1.3244,-1.3249,-1.3251,-1.3256,-1.3258,-1.3263,-1.3261,-1.3262,-1.3266,-1.3269,-1.3274,-1.3268,-1.3275,-1.3275,-1.3276,-1.3285,-1.3287,-1.3296,-1.3282,-1.3282,-1.3282,0,-1.3216,-1.3222,-1.3231,-1.3239,-1.3241,-1.3245,-1.3252,-1.3256,-1.3262,-1.3264,-1.3267,-1.3269,-1.3274,-1.3271,-1.328,-1.3276,-1.3279,-1.3281,-1.3282,-1.3283,-1.328,-1.3288,-1.3299,-1.3301,-1.3284,-1.3284,-1.3284,0,-1.3216,-1.3226,-1.3234,-1.3237,-1.3246,-1.3249,-1.3253,-1.3259,-1.3263,-1.3268,-1.3271,-1.3276,-1.328,-1.3284,-1.3287,-1.3284,-1.3296,-1.3293,-1.3299,-1.3299,-1.3301,-1.3301,-1.3314,-1.3301,-1.3301,-1.3301,-1.3301,0,-1.322,-1.3226,-1.3235,-1.3239,-1.3247,-1.3251,-1.3258,-1.3262,-1.3267,-1.3273,-1.3275,-1.328,-1.3283,-1.3289,-1.3291,-1.3299,-1.33,-1.3302,-1.3303,-1.3303,-1.3303,-1.3305,-1.3305,-1.3302,-1.3302,-1.3302,-1.3301,0,-1.3222,-1.3228,-1.3236,-1.3245,-1.3248,-1.3253,-1.3261,-1.3266,-1.3269,-1.3277,-1.3279,-1.3284,-1.3292,-1.3295,-1.3303,-1.3305,-1.3315,-1.3314,-1.3314,-1.3314,-1.332,-1.332,-1.3336,-1.3339,-1.3323,-1.3324,-1.3324,0,-1.3224,-1.3229,-1.324,-1.3245,-1.3249,-1.3256,-1.3261,-1.3267,-1.3272,-1.328,-1.3284,-1.3292,-1.3299,-1.331,-1.3315,-1.3322,-1.3323,-1.3328,-1.3324,-1.3324,-1.3325,-1.3325,-1.3326,-1.3329,-1.3329,-1.3329,-1.3329,0,-1.3229,-1.3232,-1.324,-1.3249,-1.3256,-1.3263,-1.327,-1.3273,-1.328,-1.3285,-1.3294,-1.33,-1.331,-1.3318,-1.3326,-1.333,-1.3331,-1.3331,-1.3332,-1.3333,-1.3333,-1.3335,-1.3317,-1.333,-1.333,-1.333,-1.333,-1.333,-1.3232,-1.3237,-1.3247,-1.3256,-1.3262,-1.327,-1.3276,-1.3282,-1.3289,-1.3299,-1.3302,-1.3311,-1.3319,-1.333,-1.3334,-1.3342,-1.3341,-1.3343,-1.3344,-1.3345,-1.3346,-1.3331,-1.3343,-1.3343,-1.3343,-1.3343,-1.3343,0,-1.3237,-1.3244,-1.3253,-1.3264,-1.3272,-1.3274,-1.3283,-1.3289,-1.3298,-1.3305,-1.3313,-1.3324,-1.3333,-1.3339,-1.3349,-1.3354,-1.3355,-1.3356,-1.3356,-1.3357,-1.3346,-1.3344,-1.3355,-1.3355,-1.3355,-1.3355,-1.3355,-1.3355,-1.3241,-1.3252,-1.3257,-1.3272,-1.3278,-1.3289,-1.3294,-1.3301,-1.3308,-1.3321,-1.3329,-1.3334,-1.3342,-1.3352,-1.3361,-1.3362,-1.3366,-1.3368,-1.337,-1.3359,-1.3358,-1.3356,-1.3355,-1.3368,-1.3368,-1.3381,-1.3381,-1.3381]}]]